Location: Beverley
(50.2667°N, 107.9667°W)
Time: 07:34:20
(UTC+00:00)

EO-79 - Pass Details

Date: 08 July 2022
Orbit: 588 x 603 km, 98.0° (Epoch: 09 August)

Event Time Altitude Azimuth Distance (km) Brightness Sun altitude
Rises 10:08:36 0° 4° (N) 2,863 ? -8.0°
Reaches altitude 10° 10:11:04 10° 351° (N) 1,957 ? -7.7°
Maximum altitude 10:14:30 25° 297° (WNW) 1,247 ? -7.4°
Drops below altitude 10° 10:17:56 10° 243° (WSW) 1,950 ? -7.0°
Enters shadow 10:18:29 - 239° (WSW) 2,138 ? -7.0°
